Tracking 20945 objects as of 9-Jul-2020
HD Live streaming from Space Station
objects crossing your sky now

THORAD DELTA 1 DEB

Track THORAD DELTA 1 DEB now!
10-day predictions


NORAD ID: 42619
Int'l Code: 1974-089GL
Perigee: 985.0 km
Apogee: 1,265.7 km
Inclination: 102.1 °
Period: 107.7 minutes
Semi major axis: 7496 km
RCS: Unknown
Launch date: November 15, 1974
Source: United States (US)
Launch site: AIR FORCE WESTERN TEST RANGE (AFWTR)

Note: This is SATELLITE DEBRIS
aabbcc
Your satellite tracking list
Your tracking list is empty




NASA's NSSDC Master Catalog

Two Line Element Set (TLE):
1 42619U 74089GL  20190.60772083 +.00000424 +00000-0 +83253-3 0  9999
2 42619 102.0731 109.4309 0187215 190.5907 292.6737 13.37610526323401
Source of the keplerian elements: AFSPC